TimeCDT,TemperatureF,Dew PointF,Humidity,Sea Level PressureIn,VisibilityMPH,Wind Direction,Wind SpeedMPH,Gust SpeedMPH,PrecipitationIn,Events,Conditions,WindDirDegrees,DateUTC
12:15 AM,66.0,39.4,38,29.94,10.0,North,9.2,-,N/A,,Clear,350,2013-05-15 05:15:00
12:35 AM,67.6,39.0,35,29.93,10.0,ESE,3.5,-,N/A,,Clear,110,2013-05-15 05:35:00
12:55 AM,62.6,40.3,44,29.93,10.0,South,6.9,-,N/A,,Clear,170,2013-05-15 05:55:00
1:35 AM,60.3,41.0,49,29.92,10.0,South,10.4,-,N/A,,Clear,170,2013-05-15 06:35:00
1:55 AM,59.0,41.0,51,29.92,10.0,SSE,5.8,-,N/A,,Clear,150,2013-05-15 06:55:00
2:15 AM,60.4,41.0,49,29.93,10.0,SSE,10.4,-,N/A,,Clear,150,2013-05-15 07:15:00
2:35 AM,60.6,41.9,50,29.92,10.0,SSE,12.7,-,N/A,,Clear,150,2013-05-15 07:35:00
2:55 AM,59.0,42.3,54,29.92,10.0,South,6.9,-,N/A,,Clear,190,2013-05-15 07:55:00
3:15 AM,56.8,42.4,59,29.93,10.0,SSW,4.6,-,N/A,,Clear,210,2013-05-15 08:15:00
3:35 AM,57.4,42.8,58,29.93,10.0,South,9.2,-,N/A,,Clear,180,2013-05-15 08:35:00
3:55 AM,56.8,43.5,61,29.94,10.0,South,10.4,-,N/A,,Clear,170,2013-05-15 08:55:00
4:15 AM,58.5,45.9,63,29.93,10.0,South,13.8,-,N/A,,Clear,170,2013-05-15 09:15:00
4:35 AM,57.6,46.4,66,29.93,10.0,South,12.7,-,N/A,,Clear,170,2013-05-15 09:35:00
4:55 AM,56.5,46.4,69,29.92,10.0,South,10.4,-,N/A,,Clear,170,2013-05-15 09:55:00
5:15 AM,55.8,45.9,69,29.93,10.0,South,6.9,-,N/A,,Clear,180,2013-05-15 10:15:00
5:35 AM,55.2,45.5,70,29.93,10.0,WSW,5.8,-,N/A,,Clear,240,2013-05-15 10:35:00
5:55 AM,55.6,44.6,67,29.93,10.0,SW,6.9,-,N/A,,Clear,220,2013-05-15 10:55:00
6:15 AM,53.6,44.4,71,29.94,10.0,SSW,5.8,-,N/A,,Clear,200,2013-05-15 11:15:00
6:35 AM,51.6,43.5,74,29.94,10.0,Calm,Calm,-,N/A,,Clear,0,2013-05-15 11:35:00
6:55 AM,51.8,43.5,73,29.94,10.0,West,6.9,-,N/A,,Clear,270,2013-05-15 11:55:00
7:15 AM,51.4,43.3,74,29.94,10.0,WSW,3.5,-,N/A,,Clear,240,2013-05-15 12:15:00
7:35 AM,52.5,43.9,72,29.95,10.0,Calm,Calm,-,N/A,,Clear,0,2013-05-15 12:35:00
7:55 AM,56.5,43.7,62,29.96,10.0,Calm,Calm,-,N/A,,Clear,0,2013-05-15 12:55:00
8:15 AM,59.4,45.5,60,29.97,10.0,SSE,5.8,-,N/A,,Clear,150,2013-05-15 13:15:00
8:35 AM,59.9,46.2,61,29.97,10.0,SSE,4.6,-,N/A,,Scattered Clouds,160,2013-05-15 13:35:00
8:55 AM,64.9,44.2,47,29.97,10.0,SSE,3.5,-,N/A,,Clear,160,2013-05-15 13:55:00
9:15 AM,66.6,43.3,43,29.98,10.0,ESE,4.6,-,N/A,,Clear,110,2013-05-15 14:15:00
9:35 AM,68.2,43.9,41,29.98,10.0,NE,5.8,-,N/A,,Clear,50,2013-05-15 14:35:00
9:55 AM,70.2,46.8,43,29.99,10.0,ENE,4.6,-,N/A,,Clear,70,2013-05-15 14:55:00
10:15 AM,71.6,42.3,35,29.99,10.0,East,5.8,16.1,N/A,,Scattered Clouds,100,2013-05-15 15:15:00
10:35 AM,72.1,43.9,36,29.99,10.0,ESE,11.5,16.1,N/A,,Scattered Clouds,110,2013-05-15 15:35:00
10:55 AM,72.5,41.2,32,29.99,10.0,ESE,10.4,-,N/A,,Clear,120,2013-05-15 15:55:00
11:15 AM,73.6,41.0,31,29.99,10.0,ESE,10.4,16.1,N/A,,Clear,120,2013-05-15 16:15:00
11:35 AM,73.8,40.6,30,29.99,10.0,East,8.1,-,N/A,,Clear,100,2013-05-15 16:35:00
11:55 AM,74.1,40.5,30,29.98,10.0,East,8.1,-,N/A,,Clear,100,2013-05-15 16:55:00
12:15 PM,75.2,40.3,28,29.98,10.0,ESE,8.1,-,N/A,,Clear,120,2013-05-15 17:15:00
12:55 PM,75.6,39.4,27,29.97,10.0,East,9.2,-,N/A,,Clear,90,2013-05-15 17:55:00
1:15 PM,76.6,39.2,26,29.97,10.0,SE,9.2,-,N/A,,Clear,140,2013-05-15 18:15:00
1:35 PM,76.8,38.7,25,29.96,10.0,East,9.2,17.3,N/A,,Clear,90,2013-05-15 18:35:00
1:55 PM,77.2,38.5,25,29.96,10.0,East,5.8,-,N/A,,Clear,80,2013-05-15 18:55:00
2:15 PM,76.8,38.3,25,29.96,10.0,East,8.1,-,N/A,,Clear,80,2013-05-15 19:15:00
2:35 PM,77.2,37.6,24,29.95,10.0,Calm,Calm,-,N/A,,Clear,0,2013-05-15 19:35:00
2:55 PM,78.4,37.6,23,29.94,10.0,ESE,13.8,-,N/A,,Clear,110,2013-05-15 19:55:00
3:15 PM,78.3,37.6,23,29.94,10.0,East,6.9,16.1,N/A,,Clear,80,2013-05-15 20:15:00
3:35 PM,78.8,37.0,22,29.93,10.0,ENE,8.1,16.1,N/A,,Clear,70,2013-05-15 20:35:00
3:55 PM,79.5,36.9,22,29.93,10.0,ENE,11.5,16.1,N/A,,Clear,70,2013-05-15 20:55:00
4:15 PM,77.7,37.8,24,29.92,10.0,ESE,10.4,-,N/A,,Clear,120,2013-05-15 21:15:00
4:35 PM,77.2,37.8,24,29.92,10.0,SSE,6.9,16.1,N/A,,Clear,150,2013-05-15 21:35:00
4:55 PM,78.8,38.1,23,29.91,10.0,East,8.1,-,N/A,,Clear,90,2013-05-15 21:55:00
5:15 PM,77.4,38.7,25,29.90,10.0,East,12.7,16.1,N/A,,Clear,90,2013-05-15 22:15:00
5:35 PM,77.9,38.3,24,29.90,10.0,ESE,5.8,9.2,N/A,,Clear,120,2013-05-15 22:35:00
5:55 PM,75.9,38.5,26,29.90,10.0,East,8.1,-,N/A,,Clear,90,2013-05-15 22:55:00
6:15 PM,74.7,39.6,28,29.90,10.0,East,5.8,-,N/A,,Clear,100,2013-05-15 23:15:00
6:35 PM,73.6,40.5,30,29.90,10.0,ESE,10.4,-,N/A,,Clear,120,2013-05-15 23:35:00
6:55 PM,73.4,40.1,30,29.91,10.0,SE,6.9,-,N/A,,Clear,130,2013-05-15 23:55:00
7:15 PM,72.1,41.0,32,29.91,10.0,SE,4.6,-,N/A,,Clear,140,2013-05-16 00:15:00
7:35 PM,70.0,43.9,39,29.91,10.0,SE,4.6,-,N/A,,Clear,140,2013-05-16 00:35:00
7:55 PM,69.4,44.4,41,29.92,10.0,SE,4.6,-,N/A,,Clear,140,2013-05-16 00:55:00
8:15 PM,68.5,45.0,43,29.92,10.0,ESE,3.5,-,N/A,,Clear,120,2013-05-16 01:15:00
8:35 PM,67.6,45.3,45,29.92,10.0,South,6.9,-,N/A,,Clear,180,2013-05-16 01:35:00
8:55 PM,68.4,41.2,37,29.93,10.0,SW,6.9,-,N/A,,Clear,230,2013-05-16 01:55:00
9:15 PM,67.1,40.8,38,29.93,10.0,WSW,5.8,-,N/A,,Clear,250,2013-05-16 02:15:00
9:35 PM,66.6,41.0,39,29.93,10.0,Calm,Calm,-,N/A,,Mostly Cloudy,0,2013-05-16 02:35:00
9:55 PM,67.3,39.7,36,29.93,10.0,Calm,Calm,-,N/A,,Scattered Clouds,0,2013-05-16 02:55:00
10:15 PM,68.0,39.0,35,29.94,10.0,SW,6.9,-,N/A,,Mostly Cloudy,220,2013-05-16 03:15:00
10:35 PM,65.1,43.0,45,29.95,10.0,SW,6.9,-,N/A,,Mostly Cloudy,230,2013-05-16 03:35:00
10:55 PM,65.1,42.3,43,29.95,10.0,SW,11.5,16.1,N/A,,Scattered Clouds,230,2013-05-16 03:55:00
11:15 PM,64.6,43.2,46,29.96,10.0,SW,11.5,18.4,N/A,,Mostly Cloudy,220,2013-05-16 04:15:00
11:35 PM,63.7,44.2,49,29.96,10.0,South,16.1,-,N/A,,Mostly Cloudy,190,2013-05-16 04:35:00
11:55 PM,64.8,43.5,46,29.94,10.0,East,5.8,-,N/A,Rain,Light Rain,100,2013-05-16 04:55:00